STARLINK-1063, 44768

Orbit data source: Space-Track

STARLINK-1063, 44768 is a payload satellite owned by SpaceX/Seattle (US) in LEO that was launched on Mon, 11 Nov 2019 UTC via an FALCON 9 launch vehicle from the Air Force Eastern Test Range (AFETR). Payload-class satellites include a variety of spacecraft equipped with specific instruments for various scientific and technological missions. These include communications satellites like Starlink; space stations such as the ISS; scientific satellites like the Hubble; Earth observation satellites from companies like Planet Labs, Umbra, and HawkEye 360; GPS; miniature CubeSats for education and research; and military/defense satellites.

Loading next visibility...
Identifier
44768, 2019-074BH
Orbit
LEO
Country
Flag of USUS
Related business
Manufacturer
SpaceX/Seattle
Mission
Operational Commercial Communications
Bus & Motor
STARLINK, Unknown motor
Mass
260 kg wet, ~248 kg dry
Launch date (UTC)
2019-11-11 (6 years ago)
Launch vehicle
FALCON 9
Launch site
Air Force Eastern Test Range (AFETR)
Object type
Payload
Rocket body
Debris
Shape & HBR
Box + 1 Pan, 4.4 m
Radar Cross Section
13.562 m², Large (>1 m²)

Expand to show TLE details & history
Last TLE update: 9 hours ago

TLE from 9 hours ago
0 STARLINK-1063
1 44768U 19074BH  25258.26898487  .00003687  00000-0  26627-3 0  9994
2 44768  53.0540 294.1144 0001501  90.9391 269.1770 15.06401079321765
Epoch: 2025-09-15T06:27Z
TLE epoch observation values (Epoch: 2025-09-15T06:27:20.292Z)
Latitude
-0.00003°
Longitude
-157.19624°
Altitude
548.102 km
Speed
7.589 km/s
True Right ascension
19h 36m 27s
True Declination
0° 00' 00"
Sunlit
Object was in full shadow at epoch
Visualization orbit readout
Latitude
Unknown
Longitude
Unknown
Altitude
Unknown
Speed
Unknown
Apparent Right ascension
Unknown
Apparent Declination
Unknown
Sunlit
N/A
Visualization observer readout
Local Sidereal Time
07:49:49
Azimuth
Unknown
Elevation
Unknown
Doppler factor
Unknown
Orbital elements
Apogee altitude
548.519 km
Perigee altitude
546.44 km
Semi-major axis
6,925.616 km
Eccentricity
0.00015
Inclination
53.054°
RAAN
294.1144°
Arg. of periapsis
90.9391°
True anomaly
269.1598°
Mean anomaly
269.177°
Eccentric anomaly
269.1684°
Mean motion
3.76579 °/min
Orbital period
95.6 mins
BSTAR
0.00026627
Loading maneuver chart data...
Computing Atmospheric mass density...

Documentation

Showing up to 5 results
|